Flag for Germany Weather past 2 weeks in Salzgitter, Lower Saxony, Germany

Now
41 °F

Partly sunny.


Feels Like: 33 °F
Forecast: 45 / 51 °F
Wind: 14 mph from West

Location: Braunschweig

Current Time: Dec 21, 2014 at 11:12:52 AM

Latest Report: Dec 21, 2014 at 10:20 AM


Visibility: N/A

Pressure: 30.27 "Hg

Humidity: 93%

Dew point: 39 °F

Location of SalzgitterLocation

Historic Weather in Salzgitter — Graph

°F

Salzgitter temperature yesterday

Maximum temperature yesterday: 45 °F (at 9:20 AM)
Minimum temperature yesterday: 39 °F (at 3:20 PM)
Average temperature yesterday: 42 °F

Past Weeks' High & Low Weather Summary

 TemperatureHumidityPressure
High54 °F (Dec 18, 6:50 PM)100% (Dec 6, 10:20 AM)30.36 "Hg (Dec 6, 10:20 AM)
Low34 °F (Dec 9, 8:20 PM)65% (Dec 10, 6:50 AM)29.36 "Hg (Dec 12, 2:20 PM)
Average42 °F88%29.85 "Hg
* Reported Dec 6 9:20 AM — Dec 21 9:50 AM, Salzgitter, Weather by CustomWeather, © 2014

Note: Actual official high and low records may vary slightly from our data, if they occured in-between our weather recording intervals... More about our weather records

Advertising

Salzgitter weather history for previous 24 hours

 ConditionsComfort  
Time TempWeatherWind HumidityBarometerVisibility
9:50 AM
Dec 21
41 °FMore clouds than sun.13 mph87%30.27 "HgN/A
9:20 AM41 °FMostly cloudy.15 mph93%30.27 "HgN/A
8:50 AM39 °FOvercast.12 mph93%30.27 "HgN/A
8:20 AM39 °FOvercast.9 mph93%30.27 "HgN/A
7:50 AM39 °FMostly cloudy.10 mph93%30.24 "HgN/A
5:50 PM
Dec 20
39 °FPassing clouds.16 mph93%29.89 "HgN/A
5:20 PM41 °FPassing clouds.17 mph87%29.86 "HgN/A
4:50 PM39 °FPartly cloudy.16 mph93%29.86 "HgN/A
4:20 PM39 °FPartly cloudy.15 mph93%29.86 "HgN/A
3:50 PM39 °FScattered showers. Broken clouds.13 mph87%29.83 "HgN/A
3:20 PM39 °FThunderstorms. Broken clouds.24 mph100%29.86 "Hg4 mi
2:56 PM45 °FLots of rain. Partly sunny.21 mph81%29.83 "Hg1 mi
2:50 PM45 °FScattered showers. Broken clouds.20 mph81%29.80 "HgN/A
2:20 PM43 °FPartly sunny.18 mph87%29.83 "HgN/A
1:50 PM43 °FPartly sunny.20 mph87%29.83 "HgN/A
1:20 PM43 °FDrizzle. Mostly cloudy.22 mph87%29.83 "HgN/A
12:50 PM43 °FMostly cloudy.22 mph81%29.86 "HgN/A
12:20 PM45 °FOvercast.21 mph76%29.86 "HgN/A
11:50 AM43 °FMostly cloudy.22 mph81%29.86 "HgN/A
11:20 AM45 °FMostly cloudy.25 mph71%29.89 "HgN/A
Weather by CustomWeather, © 2014

See weather overviewHow to use our weather pages